sat.trackr.live / text

‹ back to catalog

STARLINK-31462

NORAD 59466 · 2024-068M

PAYLOAD ACTIVE UNKNOWN

§ Identity

Operator
Country
US
Launch date
2024-04-10
Launch site
AFETR
Launch vehicle
Mass (kg)
RCS (m²)

Purposes: comms

External: N2YO · Heavens-Above · Gunter

§ Orbital elements

Epoch: 2026-05-25T04:36:35.411328Z

Period
94.27 min
Inclination
43.0044°
Eccentricity
0.0001774
Mean motion
15.27576998 rev/d
Perigee alt
481.8 km
Apogee alt
484.3 km
Semi-major
6,861.2 km
B*
-7.1401e-6
RAAN
322.3793°
Arg perigee
266.8545°
Mean anomaly
93.2104°
Rev number
12,022

§ Raw data

STARLINK-314621 59466U 24068M   26145.19207652 -.00000459  00000+0 -71401-5 0  99972 59466  43.0044 322.3793 0001774 266.8545  93.2104 15.27576998120226

JSON: /api/v1/satellites/59466 · /tle

For live sub-satellite position, see the globe view (requires WebGL).

§ Visibility from observer

Set your observer location to see the next 7 days of passes ≥ 10°. The values pass through the URL so the page stays shareable.

No JS? Fill the form by hand. The geolocation button needs JavaScript.